Simultaneous Nadir Overpasses (SNOs) Predictions

Prediction of SNOs between GOES-14 and AQUA Satellite Orbit:

Table of predicted SNOs for the next 14.0 days since TLE Epoch: 6/21/2019
Index Date Time (GOES-14) GOES-14 Lat,Lon AQUA Lat,Lon Distance(km) Time Diff (sec)
1 06/22/2019 08:45:17 -0.09,-104.51 0.55,-107.67 358.76 80
2 06/24/2019 08:33:05 -0.09,-104.53 -0.05,-104.71 21.14 80
3 06/26/2019 08:23:33 -0.08,-104.54 -0.65,-101.75 316.47 80
4 06/26/2019 20:42:19 0.11,-104.70 -0.36,-106.96 256.69 80
5 06/28/2019 20:32:47 0.11,-104.72 0.24,-104.00 80.74 80
6 06/30/2019 20:20:36 0.11,-104.72 0.91,-101.05 417.81 80
7 07/01/2019 08:39:11 -0.14,-104.56 0.21,-106.21 186.65 80
8 07/03/2019 08:29:39 -0.14,-104.57 -0.40,-103.24 149.95 80
9 07/03/2019 20:48:24 0.16,-104.73 -0.65,-108.45 423.17 80
10 07/05/2019 08:17:28 -0.13,-104.57 -1.07,-100.30 486.54 80
11 07/05/2019 20:36:12 0.16,-104.73 -0.03,-105.49 86.54 80




NCC Satellite Simultaneous Nadir Overpasses (SNOs) Prediction Service
